Time,TemperatureF,DewpointF,PressureIn,WindDirection,WindDirectionDegrees,WindSpeedMPH,WindSpeedGustMPH,Humidity,HourlyPrecipIn,Conditions,Clouds,dailyrainin,SoftwareType,DateUTC
2013-01-14 00:00:00,16.0,8.0,-100.00,North,-999,-999.0,-999.0,71,0.00,,,-99.99,,2013-01-14 08:00:00,
2013-01-14 00:53:00,16.0,8.0,-100.00,North,-999,-999.0,-999.0,71,0.00,,,-99.99,,2013-01-14 08:53:00,
2013-01-14 01:00:00,16.0,8.0,-100.00,North,-999,-999.0,-999.0,69,0.00,,,-99.99,,2013-01-14 09:00:00,
2013-01-14 02:00:00,18.0,8.0,-100.00,North,-999,-999.0,-999.0,65,0.00,,,-99.99,,2013-01-14 10:00:00,
2013-01-14 02:53:00,18.0,8.0,-100.00,North,-999,-999.0,-999.0,65,0.00,,,-99.99,,2013-01-14 10:53:00,
2013-01-14 03:00:00,18.0,10.0,-100.00,North,-999,-999.0,-999.0,70,0.00,,,-99.99,,2013-01-14 11:00:00,
2013-01-14 03:53:00,18.0,10.0,-100.00,North,-999,-999.0,-999.0,70,0.00,,,-99.99,,2013-01-14 11:53:00,
2013-01-14 04:00:00,19.0,11.0,-100.00,North,-999,-999.0,-999.0,70,0.00,,,-99.99,,2013-01-14 12:00:00,
2013-01-14 05:00:00,22.0,15.0,-100.00,North,-999,-999.0,-999.0,73,0.00,,,-99.99,,2013-01-14 13:00:00,
2013-01-14 05:53:00,22.0,15.0,-100.00,North,-999,-999.0,-999.0,73,0.00,,,-99.99,,2013-01-14 13:53:00,
2013-01-14 06:00:00,23.0,16.0,-100.00,North,-999,-999.0,-999.0,74,0.00,,,-99.99,,2013-01-14 14:00:00,
2013-01-14 07:00:00,22.0,15.0,-100.00,North,-999,-999.0,-999.0,74,0.00,,,-99.99,,2013-01-14 15:00:00,
2013-01-14 08:00:00,25.0,19.0,-100.00,North,-999,-999.0,-999.0,77,0.00,,,-99.99,,2013-01-14 16:00:00,
2013-01-14 09:00:00,25.0,17.0,-100.00,North,-999,-999.0,-999.0,71,0.00,,,-99.99,,2013-01-14 17:00:00,
2013-01-14 10:00:00,25.0,17.0,-100.00,North,-999,-999.0,-999.0,70,0.00,,,-99.99,,2013-01-14 18:00:00,
2013-01-14 11:00:00,25.0,19.0,-100.00,North,-999,-999.0,-999.0,77,0.00,,,-99.99,,2013-01-14 19:00:00,
2013-01-14 12:00:00,24.0,20.0,-100.00,North,-999,-999.0,-999.0,84,0.00,,,-99.99,,2013-01-14 20:00:00,
2013-01-14 12:53:00,24.0,20.0,-100.00,North,-999,-999.0,-999.0,84,0.00,,,-99.99,,2013-01-14 20:53:00,
2013-01-14 13:00:00,23.0,20.0,-100.00,North,-999,-999.0,-999.0,87,0.00,,,-99.99,,2013-01-14 21:00:00,
2013-01-14 14:00:00,23.0,21.0,-100.00,North,-999,-999.0,-999.0,93,0.00,,,-99.99,,2013-01-14 22:00:00,
2013-01-14 15:00:00,23.0,22.0,-100.00,North,-999,-999.0,-999.0,95,0.00,,,-99.99,,2013-01-14 23:00:00,
2013-01-14 16:00:00,22.0,21.0,-100.00,North,-999,-999.0,-999.0,94,0.00,,,-99.99,,2013-01-15 00:00:00,
2013-01-14 16:53:00,22.0,21.0,-100.00,North,-999,-999.0,-999.0,94,0.00,,,-99.99,,2013-01-15 00:53:00,
2013-01-14 17:00:00,21.0,20.0,-100.00,North,-999,-999.0,-999.0,96,0.00,,,-99.99,,2013-01-15 01:00:00,
2013-01-14 18:00:00,21.0,20.0,-100.00,North,-999,-999.0,-999.0,95,0.00,,,-99.99,,2013-01-15 02:00:00,
2013-01-14 19:00:00,21.0,20.0,-100.00,North,-999,-999.0,-999.0,95,0.00,,,-99.99,,2013-01-15 03:00:00,
2013-01-14 19:53:00,21.0,20.0,-100.00,North,-999,-999.0,-999.0,95,0.00,,,-99.99,,2013-01-15 03:53:00,
2013-01-14 20:00:00,20.0,19.0,-100.00,North,-999,-999.0,-999.0,94,0.00,,,-99.99,,2013-01-15 04:00:00,
2013-01-14 21:00:00,20.0,19.0,-100.00,North,-999,-999.0,-999.0,94,0.00,,,-99.99,,2013-01-15 05:00:00,
2013-01-14 22:00:00,21.0,20.0,-100.00,North,-999,-999.0,-999.0,95,0.00,,,-99.99,,2013-01-15 06:00:00,
2013-01-14 23:00:00,23.0,22.0,-100.00,North,-999,-999.0,-999.0,96,0.00,,,-99.99,,2013-01-15 07:00:00,